Content
SEND FEEDBACK

Daily
Averages
Monthly
Summary
United States of America

ALPINE MEADOWS, CALIFORNIA


Home > North America > United States > California
Elevation: 6230 feet     Latitude: 39 12N     Longitude: 120 14W

WEATHER
 
SELECT A DAY
Number of Records: 281,993;   Date Range: 1/1/95 - 7/7/14
 
SHARE

PRINT THIS DATA

[ ← Previous Day ]
WEATHER ALMANAC - NOVEMBER 9, 2013
[ Next Day → ]
[ °C ]   °F
Weather ElementAverageHighLow
Temperature33 °F62.6 °F (1:45 pm)21.2 °F (5:35 am)
Dewpoint23.4 °F26.6 °F (7:55 am)19.4 °F (12:35 am)
Humidity73 %100 % (4:35 am)22 % (1:45 pm)
Barometer30.19 in30.24 in (11:35 pm)30.14 in (12:45 pm)
Wind Speed1.4 mph11.5 mph (1:45 pm)
Wind Gust16.1 mph (1:45 pm)
Weather ElementAverage
Visibility9.6 mi
Wind DirectionENE (54.2 °)

Weather ElementTotal
Precipitation---
Heating Degree Days23.1 (Base 65)
Averaged from 45 records on November 9, 2013
WEATHER CONDITIONS BREAKOUT
WIND DIRECTION BREAKOUT
WEATHER BY HOUR - NOVEMBER 9, 2013
[ °C ]   °F
Local TimeTemperatureDewpointHumidityBarometerVisibilityWind DirectionWind SpeedGust SpeedPrecipitationEventsConditions
12:35 AM24.8 °F19.4 °F80 %30.15 in10.0 miCalmClear
12:55 AM24.8 °F23.0 °F93 %30.15 in10.0 miCalmClear
1:15 AM23.0 °F19.4 °F86 %30.15 in10.0 miCalmClear
1:35 AM24.8 °F21.2 °F86 %30.15 in10.0 miCalmClear
1:55 AM24.8 °F19.4 °F80 %30.16 in10.0 miCalmClear
2:15 AM23.0 °F19.4 °F86 %30.16 in10.0 miCalmClear
2:35 AM24.8 °F21.2 °F86 %30.17 in10.0 miCalmClear
2:55 AM24.8 °F23.0 °F93 %30.17 in10.0 miCalmClear
3:15 AM24.8 °F23.0 °F93 %30.17 in10.0 miCalmClear
3:35 AM24.8 °F23.0 °F93 %30.17 in10.0 miCalmClear
3:55 AM24.8 °F23.0 °F93 %30.17 in10.0 miCalmClear
4:15 AM24.8 °F23.0 °F93 %30.17 in10.0 miCalmClear
4:35 AM23.0 °F23.0 °F100 %30.17 in10.0 miCalmClear
4:55 AM24.8 °F23.0 °F93 %30.18 in7.0 miCalmClear
5:15 AM23.0 °F21.2 °F93 %30.18 in3.0 miCalmClear
5:35 AM21.2 °F19.4 °F93 %30.18 in1.5 miCalmClear
6:50 AM23.0 °F23.0 °F100 %30.19 in10.0 miCalmClear
7:55 AM28.4 °F26.6 °F93 %30.20 in10.0 miCalmClear
8:55 AM35.6 °F26.6 °F70 %30.20 in10.0 miCalmClear
9:45 AM41.0 °F26.6 °F57 %30.20 in10.0 miCalmClear
10:45 AM48.2 °F26.6 °F43 %30.19 in10.0 miCalmClear
12:45 PM60.8 °F23.0 °F23 %30.14 in10.0 miSSW (200°)6.9 mphClear
1:45 PM62.6 °F23.0 °F22 %30.14 in10.0 miWSW (240°)11.5 mph16.1 mphClear
2:55 PM60.8 °F23.0 °F23 %30.15 in10.0 miWSW (250°)6.9 mphClear
4:45 PM53.6 °F23.0 °F30 %30.16 in10.0 miWest (270°)5.8 mphClear
4:55 PM48.2 °F23.0 °F37 %30.16 in10.0 miSSE (150°)3.5 mphClear
5:15 PM44.6 °F24.8 °F46 %30.17 in10.0 miESE (120°)4.6 mphClear
5:35 PM44.6 °F24.8 °F46 %30.17 in10.0 miSSE (160°)5.8 mphClear
6:35 PM39.2 °F24.8 °F56 %30.20 in10.0 miSSW (210°)3.5 mphClear
6:55 PM37.4 °F24.8 °F60 %30.20 in10.0 miCalmClear
7:15 PM35.6 °F24.8 °F65 %30.20 in10.0 miSW (230°)3.5 mphClear
7:35 PM37.4 °F24.8 °F60 %30.20 in10.0 miSouth (180°)3.5 mphClear
7:55 PM33.8 °F24.8 °F70 %30.21 in10.0 miCalmClear
8:15 PM35.6 °F24.8 °F65 %30.21 in10.0 miCalmClear
8:35 PM33.8 °F24.8 °F70 %30.22 in10.0 miCalmClear
8:55 PM30.2 °F23.0 °F75 %30.22 in10.0 miSSW (210°)3.5 mphClear
9:15 PM30.2 °F24.8 °F80 %30.23 in10.0 miCalmClear
9:35 PM32.0 °F24.8 °F75 %30.23 in10.0 miSW (220°)3.5 mphClear
9:55 PM32.0 °F24.8 °F75 %30.23 in10.0 miCalmClear
10:15 PM32.0 °F24.8 °F75 %30.23 in10.0 miCalmClear
10:35 PM28.4 °F24.8 °F86 %30.23 in10.0 miCalmClear
10:55 PM28.4 °F24.8 °F86 %30.23 in10.0 miCalmClear
11:15 PM28.4 °F24.8 °F86 %30.23 in10.0 miCalmClear
11:35 PM26.6 °F23.0 °F86 %30.24 in10.0 miCalmClear
11:55 PM26.6 °F23.0 °F86 %30.24 in10.0 miCalmClear
Hourly data recorded from KTRK, located miles away from Alpine Meadows, California







STORIES FROM OUR PARTNERS